Tracking 31027 objects as of 19-Jul-2025
HD Live streaming from Space Station
objects crossing your sky now

SL-12 R/B(AUX MOTOR)

Track SL-12 R/B(AUX MOTOR) now!
10-day predictions


NORAD ID: 33385
Int'l Code: 2008-046H
Perigee: 895.4 km
Apogee: 18,718.4 km
Inclination: 65.2 °
Period: 341.3 minutes
Semi major axis: 16177 km
RCS: 0.543 m2 (medium)
Launch date: September 25, 2008
Source: Commonwealth of Independent States (former USSR) (CIS)
Launch site: TYURATAM MISSILE AND SPACE COMPLEX (TTMTR)

Note: This is a ROCKET BODY
Your satellite tracking list
STARLINK-31879
Track 1 satellite(s)




NASA's NSSDC Master Catalog

Two Line Element Set (TLE):
1 33385U 08046H   25198.22025918  .00000112  00000-0  51858-3 0  9998
2 33385  65.1689 167.9904 5508441 287.1837  21.6750  4.21910847259012
Source of the keplerian elements: AFSPC